This is the latest recevied weather packets stored in our database for station/object K9YK-13. If no packets are shown the sender has not sent any weather packets the latest 10 day(s).
| Time | Temp. | Humidity | Pressure | Rain* | Wind** | Luminosity | Snow |
|---|---|---|---|---|---|---|---|
| 1778047570 | 8.33° C | 91% | 0 hPa | 0 mm | - | - | - |
| 1778047269 | 7.78° C | 91% | 0 hPa | 0 mm | - | - | - |
| 1778046970 | 8.33° C | 92% | 0 hPa | 0 mm | - | - | - |
| 1778046670 | 8.89° C | 89% | 0 hPa | 0 mm | - | - | - |
| 1778046370 | 8.89° C | 85% | 0 hPa | 0 mm | - | - | - |
| 1778046069 | 8.89° C | 85% | 0 hPa | 0 mm | - | - | - |
| 1778045769 | 8.33° C | 85% | 0 hPa | 0 mm | - | - | - |
| 1778045470 | 7.78° C | 85% | 0 hPa | 0 mm | - | - | - |
| 1778045170 | 8.89° C | 84% | 0 hPa | 0 mm | - | - | - |
| 1778044870 | 8.89° C | 85% | 0 hPa | 0 mm | - | - | - |
| 1778044569 | 9.44° C | 86% | 0 hPa | 0 mm | - | - | - |
| 1778044269 | 8.33° C | 86% | 0 hPa | 0 mm | - | - | - |
| 1778043969 | 7.78° C | 84% | 0 hPa | 0 mm | - | - | - |
| 1778043669 | 9.44° C | 88% | 0 hPa | 0 mm | - | - | - |
| 1778043369 | 9.44° C | 91% | 0 hPa | 0 mm | - | - | - |
| 1778043069 | 9.44° C | 93% | 0 hPa | 0 mm | - | - | - |
| 1778042770 | 8.89° C | 95% | 0 hPa | 0 mm | - | - | - |
| 1778042470 | 8.33° C | 96% | 0 hPa | 0 mm | - | - | - |
| 1778042169 | 10° C | 96% | 0 hPa | 0 mm | - | - | - |
| 1778041870 | 8.89° C | 97% | 0 hPa | 0 mm | - | - | - |
| 1778041570 | 10° C | 97% | 0 hPa | 0 mm | - | - | - |
| 1778041270 | 10° C | 97% | 0 hPa | 0 mm | - | - | - |
| 1778040969 | 9.44° C | 97% | 0 hPa | 0 mm | - | - | - |
| 1778040669 | 9.44° C | 97% | 0 hPa | 0 mm | - | - | - |
| 1778040370 | 10° C | 97% | 0 hPa | 0 mm | - | - | - |
* Rain latest hour (hover to see other rain measurements)
** Current wind speed in m/s (hover to see current wind gust speed)